Probability
0 0 0 0 0 0 0 0 0 0 0 0 0 0 0 0 0 0 0 0 0 0 0 0 0 0 0 0 0 0 0 0 0 0 0 0 0 0 0 0 0 0 0 0
0 0 0 0 0 0 0 0 0 0 0 0 0 0 0 0 0 0 0 0 0 0 0 0 0 0 0 0 0 0 0 0 0 0 0 0 0 0 0 0 0 0 0 0
0 0 0 0 0 0 0 0 0 0 0 0 0 0 0 0 0 0 0 0 0 0 0 0 0 0 0 0 0 0 0 0 0 0 0 0 0 0 0 0 0 0 0 0
0 0 0 0 0 0 0 0 0 0 0 0 0 0 0 0 0 0 0 0 0 0 0 0 0 0 0 0 0 0 0 0 0 0 0 0 0 0 0 0 0 0 0 0
0 0 0 0 0 0 0 0 0 0 0 0 0 0 0 0 0 0 0 0 0 0 0 0 0 0 0 0 0 0 0 0 0 0 0 0 0 0 0 0 0 0 0 0
0 0 0 0 0 0 0 0 0 0 0 0 0 0 0 0 0 0 0 0 0 0 0 0 0 0 0 0 0 0 0 0 0 0 0 0 0 0 0 0 0 0 0 0
0 0 0 0 0 0 0 0 0 0 0 0 0 0 0 0 0 0 0 0 0 0 0 0 0 0 0 0 0 0 0 0 0 0 0 0 0 0 0 0 0 0 0 0
0 0 0 0 0 0 0 0 0 0 0 0 0 0 0 0 0 0 0 0 0 0 0 0 0 0 0 0 0 0 0 0 0 0 0 0 0 0 0 0 0 0 0 0
0 0 0 0 0 0 0 0 0 0 0 0 0 0 0 0 0 0 0 0 0 0 0 0 0 0 0 0 0 0 0 0 0 0 0 0 0 0 0 0 0 0 0 0
0 0 0 0 0 0 0 0 0 0 0 0 0 0 0 0 0 0 0 0 0 0 0 0 0 0 0 0 0 0 0 0 0 0 0 0 0 0 0 0 0 0 0 0
0 0 0 0 0 0 0 0 0 0 0 0 0 0 0 0 0 0 0 0 0 0 0 0 0 0 0 0 0 0 0 0 0 0 0 0 0 0 0 0 0 0 0 0
0 0 0 0 0 0 0 0 0 0 0 0 0 0 0 0 0 0 0 0 0 0 0 0 0 0 0 0 0 0 0 0 0 0 0 0 0 0 0 0 0 0 0 0
0 0 0 0 0 0 0 0 0 0 0 0 0 0 0 0 0 0 0 0 0 0 0 0 0 0 0 0 0 0 0 0 0 0 0 0 0 0 0 0 0 0 0 0
0 0 0 0 0 0 0 0 0 0 0 0 0 0 0 0 0 0 0 0 0 0 0 0 0 0 0 0 0 0 0 0 0 0 0 0 0 0 0 0 0 0 0 0
0 0 0 0 0 0 0 0 0 0 0 0 0 0 0 0 0 0 0 0 0 0 0 0 0 0 0 0 0 0 0 0 0 0 0 0 0 0 0 0 0 0 0 0
0 0 0 0 0 0 0 0 0 0 0 0 0 0 0 0 0 0 0 0 0 0 0 0 0 0 0 0 0 0 0 0 0 0 0 0 0 0 0 0 0 0 0 0
0 0 0 0 0 0 0 0 0 0 0 0 0 0 0 0 0 0 0 0 0 0 0 0 0 0 0 0 0 0 0 0 0 0 0 0 0 0 0 0 0 0 0 0
0 0 0 0 0 0 0 0 0 0 0 0 0 0 0 0 0 0 0 0 0 0 0 0 0 0 0 0 0 0 0 0 0 0 0 0 0 0 0 0 0 0 0 0
0 0 0 0 0 0 0 0 0 0 0 0 0 0 0 0 0 0 0 0 0 0 0 0 0 0 0 0 0 0 0 0 0 0 0 0 0 0 0 0 0 0 0 0
0 0 0 0 0 0 0 0 0 0 0 0 0 0 0 0 0 0 0 0 0 0 0 0 0 0 0 0 0 0 0 0 0 0 0 0 0 0 0 0 0 0 0 0
0 0 0 0 0 0 0 0 0 0 0 0 0 0 0 0 0 0 0 0 0 0 0 0 0 0 0 0 0 0 0 0 0 0 0 0 0 0 0 0 0 0 0 0
0 0 0 0 0 0 0 0 0 0 0 0 0 0 0 0 0 0 0 0 0 0 0 0 0 0 0 0 0 0 0 0 0 0 0 0 0 0 0 0 0 0 0 0
0 0 0 0 0 0 0 0 0 0 0 0 0 0 0 0 0 0 0 0 0 0 0 0 0 0 0 0 0 0 0 0 0 0 0 0 0 0 0 0 0 0 0 0
0 0 0 0 0 0 0 0 0 0 0 0 0 0 0 0 0 0 0 0 0 0 0 0 0 0 0 0 0 0 0 0 0 0 0 0 0 0 0 0 0 0 0 0
0 0 0 0 0 0 0 0 0 0 0 0 0 0 0 0 0 0 0 0 0 0 0 0 0 0 0 0 0 0 0 0 0 0 0 0 0 0 0 0 0 0 0 0
0 0 0 0 0 0 0 0 0 0 0 0 0 0 0 0 0 0 0 0 0 0 0 0 0 0 0 0 0 0 0 0 0 0 0 0 0 0 0 0 0 0 0 0
0 0 0 0 0 0 0 0 0 0 0 0 0 0 0 0 0 0 0 0 0 0 0 0 0 0 0 0 0 0 0 0 0 0 0 0 0 0 0 0 0 0 0 0
Height
5587 5588 5589 5592 5594 5595 5597 5600 5602 5605 5607 5610 5611 5613 5615 5617 5619 5621 5624 5626 5627 5629 5630 5632 5634 5637 5639 5642 5645 5648 5651 5654 5657 5660 5663 5665 5668 5671 5673 5676 5678 5680 5681 5683
5583 5583 5584 5585 5587 5588 5590 5592 5594 5596 5599 5601 5602 5604 5606 5608 5610 5612 5613 5615 5617 5618 5620 5621 5623 5625 5627 5630 5633 5636 5639 5642 5645 5647 5650 5653 5655 5658 5661 5663 5665 5667 5669 5670
5578 5578 5578 5580 5581 5581 5583 5584 5586 5588 5592 5592 5594 5595 5597 5598 5600 5601 5603 5605 5606 5607 5609 5610 5612 5614 5616 5618 5620 5623 5626 5629 5632 5634 5637 5640 5643 5645 5648 5650 5653 5655 5656 5658
5574 5574 5574 5577 5575 5575 5576 5577 5578 5580 5582 5583 5584 5586 5587 5589 5590 5591 5593 5594 5595 5597 5598 5600 5601 5602 5604 5606 5608 5611 5614 5617 5619 5622 5625 5627 5630 5632 5635 5637 5640 5642 5643 5645
5568 5568 5568 5570 5569 5568 5569 5570 5571 5571 5572 5573 5575 5576 5578 5579 5580 5581 5582 5583 5584 5586 5587 5589 5590 5591 5593 5595 5597 5599 5602 5604 5607 5609 5612 5614 5617 5619 5622 5624 5627 5629 5630 5631
5563 5563 5563 5565 5564 5562 5563 5563 5564 5563 5564 5564 5565 5567 5570 5569 5569 5570 5571 5572 5573 5575 5576 5577 5579 5580 5582 5583 5585 5587 5589 5592 5594 5597 5599 5602 5604 5606 5608 5611 5613 5615 5617 5618
5558 5557 5558 5559 5557 5556 5557 5558 5556 5555 5556 5556 5556 5558 5559 5558 5559 5560 5561 5562 5562 5563 5565 5566 5567 5569 5570 5572 5574 5576 5578 5580 5582 5584 5587 5589 5591 5593 5595 5597 5600 5601 5603 5604
5553 5553 5555 5553 5551 5551 5551 5549 5549 5548 5548 5548 5548 5548 5548 5549 5549 5550 5550 5551 5552 5553 5554 5555 5556 5558 5559 5561 5563 5564 5566 5568 5570 5572 5574 5576 5578 5580 5582 5584 5586 5588 5589 5590
5549 5550 5548 5546 5545 5544 5543 5543 5542 5541 5541 5540 5540 5540 5539 5539 5539 5540 5540 5541 5542 5543 5544 5545 5546 5547 5549 5550 5552 5554 5555 5557 5559 5560 5562 5564 5566 5567 5569 5570 5573 5575 5576 5577
5543 5543 5541 5540 5538 5537 5536 5535 5534 5534 5533 5532 5532 5531 5531 5531 5531 5531 5531 5532 5532 5533 5534 5535 5536 5537 5539 5540 5541 5543 5545 5546 5548 5550 5551 5553 5554 5555 5557 5558 5560 5561 5562 5563
5536 5536 5534 5533 5531 5531 5530 5528 5527 5526 5525 5525 5524 5523 5523 5522 5522 5522 5522 5522 5523 5524 5525 5526 5526 5527 5528 5530 5531 5532 5534 5535 5537 5538 5540 5541 5543 5544 5545 5547 5548 5549 5550 5550
5531 5530 5528 5527 5525 5524 5523 5521 5520 5519 5517 5517 5516 5515 5515 5514 5513 5513 5513 5513 5514 5515 5515 5516 5517 5517 5518 5519 5520 5522 5523 5525 5526 5528 5529 5530 5531 5533 5533 5535 5536 5536 5537 5537
5524 5522 5521 5520 5518 5517 5516 5514 5513 5511 5510 5509 5508 5507 5507 5506 5505 5505 5504 5504 5505 5505 5506 5506 5507 5508 5508 5509 5510 5511 5513 5514 5516 5517 5518 5519 5520 5521 5522 5523 5523 5524 5524 5524
5516 5515 5514 5513 5512 5510 5509 5507 5505 5504 5502 5501 5500 5499 5498 5498 5497 5497 5496 5496 5496 5496 5496 5497 5497 5498 5498 5499 5499 5501 5502 5503 5505 5506 5507 5508 5509 5510 5511 5511 5512 5511 5511 5511
5509 5508 5507 5506 5504 5503 5501 5500 5498 5497 5495 5493 5492 5491 5490 5490 5489 5488 5488 5488 5488 5488 5488 5488 5488 5488 5488 5489 5489 5490 5491 5493 5494 5495 5496 5497 5498 5499 5499 5500 5500 5500 5499 5499
5502 5500 5499 5498 5497 5495 5494 5492 5491 5489 5488 5486 5484 5483 5482 5481 5481 5480 5480 5480 5480 5480 5480 5480 5480 5479 5479 5480 5480 5480 5481 5482 5483 5484 5485 5486 5487 5487 5488 5488 5488 5488 5487 5487
5495 5493 5492 5491 5490 5488 5486 5485 5483 5482 5480 5479 5477 5476 5475 5474 5473 5472 5472 5472 5472 5472 5472 5472 5471 5471 5471 5471 5471 5471 5472 5472 5473 5474 5474 5475 5476 5476 5476 5476 5476 5475 5475 5474
5487 5486 5485 5484 5482 5481 5479 5477 5476 5474 5473 5471 5470 5469 5467 5466 5465 5465 5464 5464 5464 5463 5463 5463 5463 5462 5462 5462 5462 5462 5462 5463 5463 5464 5464 5464 5464 5465 5464 5464 5464 5463 5463 5462
5479 5478 5477 5476 5474 5473 5471 5470 5468 5467 5465 5464 5463 5461 5460 5459 5458 5457 5456 5456 5456 5455 5455 5454 5454 5453 5452 5452 5452 5452 5452 5453 5453 5453 5453 5453 5453 5453 5453 5452 5452 5451 5451 5450
5471 5470 5469 5468 5467 5465 5464 5462 5461 5459 5458 5456 5455 5454 5452 5451 5450 5449 5449 5448 5447 5447 5446 5445 5445 5444 5443 5443 5443 5443 5442 5442 5443 5443 5442 5442 5442 5442 5442 5441 5441 5440 5439 5439
5463 5462 5461 5460 5459 5457 5456 5454 5453 5451 5450 5448 5447 5446 5445 5443 5442 5441 5441 5440 5439 5438 5437 5436 5436 5435 5434 5433 5433 5433 5432 5432 5432 5432 5432 5432 5431 5431 5431 5430 5430 5429 5429 5428
5455 5454 5453 5452 5451 5449 5448 5446 5445 5444 5442 5441 5440 5438 5437 5436 5435 5434 5433 5432 5431 5430 5429 5428 5427 5426 5425 5424 5423 5423 5423 5422 5422 5421 5421 5421 5421 5421 5420 5420 5419 5419 5418 5418
5446 5445 5444 5443 5442 5441 5440 5438 5437 5436 5434 5433 5432 5431 5429 5428 5427 5426 5425 5424 5423 5421 5420 5419 5418 5417 5416 5415 5415 5414 5413 5412 5412 5412 5411 5411 5411 5410 5410 5410 5410 5409 5409 5408
5437 5436 5435 5435 5434 5433 5432 5430 5429 5428 5427 5425 5424 5423 5421 5420 5419 5418 5417 5416 5415 5414 5412 5411 5410 5408 5407 5407 5406 5405 5405 5404 5403 5403 5402 5402 5402 5401 5401 5401 5400 5400 5399 5399
5428 5427 5426 5426 5425 5424 5423 5422 5421 5420 5419 5418 5416 5415 5413 5412 5411 5410 5409 5408 5407 5406 5405 5403 5402 5401 5400 5399 5398 5398 5397 5396 5395 5395 5394 5394 5393 5393 5392 5392 5392 5391 5391 5390
5419 5418 5418 5417 5416 5416 5415 5414 5413 5412 5411 5410 5408 5407 5406 5405 5404 5403 5402 5401 5400 5399 5398 5396 5395 5394 5393 5392 5391 5390 5389 5389 5388 5387 5387 5386 5386 5385 5385 5384 5384 5383 5383 5383
5410 5409 5409 5408 5408 5407 5407 5406 5405 5404 5403 5402 5401 5399 5398 5397 5396 5395 5394 5394 5393 5392 5391 5389 5388 5387 5386 5385 5384 5383 5382 5381 5381 5380 5379 5379 5378 5377 5377 5376 5376 5375 5375 5375
Wind_Speed
20 23 27 30 33 34 34 33 33 33 33 33 33 34 34 35 35 36 37 38 38 40 41 42 43 45 46 47 48 48 48 49 49 49 49 49 49 49 49 49 49 49 49 49
16 18 20 24 27 32 34 34 34 33 33 34 34 34 34 34 34 35 36 37 38 38 39 41 42 44 45 46 47 48 48 48 49 49 49 49 50 50 50 49 49 49 49 49
15 15 17 20 23 27 29 31 33 32 32 34 34 34 34 34 35 35 36 37 38 38 39 40 41 42 44 45 46 47 47 48 48 49 50 50 50 51 51 51 50 50 50 51
15 16 17 18 20 23 26 29 31 31 32 34 35 35 35 36 35 35 36 37 39 40 40 40 41 41 42 44 45 46 47 47 47 48 49 50 50 51 51 51 51 51 51 51
15 16 16 17 18 20 23 25 28 30 31 32 34 35 35 36 37 37 37 37 38 39 40 41 41 41 41 42 44 46 47 47 47 48 48 49 50 51 52 52 52 52 52 52
15 16 16 16 17 18 20 22 25 27 29 30 32 33 33 35 37 38 38 38 38 39 40 41 41 41 41 42 43 45 46 47 48 48 48 49 50 51 51 52 52 52 52 52
16 17 17 17 17 18 20 20 22 23 25 27 28 30 31 33 35 36 37 38 38 38 39 40 40 41 41 42 42 43 44 45 47 47 48 48 48 49 51 52 52 51 51 52
17 18 18 17 17 18 19 20 22 23 24 25 26 28 29 31 32 34 35 36 36 37 37 38 38 39 40 40 41 42 43 43 44 45 46 46 47 48 49 50 51 50 49 49
17 17 18 18 18 19 19 19 21 22 22 24 25 26 27 29 31 32 33 33 34 34 35 36 36 37 37 38 39 39 40 41 41 43 43 44 44 45 47 47 48 47 48 49
17 17 18 18 18 19 20 20 21 21 22 22 23 24 25 26 28 29 30 31 32 32 32 33 34 35 36 37 38 38 39 39 39 40 41 42 43 43 43 44 45 45 46 47
18 18 19 18 19 19 20 20 21 22 23 23 23 23 24 25 26 28 29 30 31 31 32 32 33 34 35 37 37 38 38 38 38 39 39 40 42 42 42 43 43 44 45 46
19 19 20 20 20 20 20 20 21 22 23 23 23 23 23 24 25 26 27 29 30 31 32 32 33 34 34 36 37 38 38 37 38 38 39 39 40 41 41 42 43 44 44 45
20 20 20 20 20 20 20 21 21 21 22 23 23 23 23 24 25 25 26 26 28 29 31 32 33 33 35 35 36 37 38 38 38 39 39 39 40 40 40 41 42 42 42 43
20 20 20 20 20 20 21 21 21 21 22 22 23 23 23 24 24 25 25 26 26 27 28 29 31 32 33 35 36 38 38 39 39 39 39 39 39 39 39 39 40 40 40 42
20 20 20 20 20 20 21 21 21 22 22 22 23 23 23 24 24 24 25 25 26 26 27 28 29 30 32 32 34 35 36 37 38 38 38 38 38 38 39 39 39 39 40 41
21 20 20 20 20 20 20 21 21 22 22 23 23 22 22 23 24 25 25 26 26 26 26 27 28 29 30 31 32 34 34 35 35 36 37 37 38 38 39 39 40 40 40 40
21 21 21 21 21 21 21 21 21 21 21 22 22 22 22 23 24 24 25 26 26 27 27 28 28 28 29 30 31 32 32 33 33 34 35 36 37 37 38 38 38 39 40 40
21 21 21 20 20 21 22 22 22 22 22 22 22 22 22 23 23 24 25 25 26 26 27 28 28 28 29 30 30 30 31 32 33 33 34 35 35 36 37 37 37 38 38 38
22 22 21 21 21 21 22 22 23 23 23 23 23 22 22 23 23 24 24 25 26 26 27 28 28 29 29 29 29 30 30 31 32 33 34 35 35 35 35 36 36 36 36 37
23 22 22 22 22 22 23 23 23 23 23 23 23 23 23 23 23 23 24 25 26 27 27 28 29 29 30 30 30 30 31 32 33 33 34 34 34 35 35 35 35 35 35 35
22 22 23 23 23 23 23 24 24 24 24 23 23 23 23 23 23 23 24 25 26 27 27 28 28 29 29 29 30 30 31 32 32 32 33 33 34 34 34 34 33 33 33 33
23 23 23 24 24 24 24 24 24 24 23 23 23 24 24 24 24 24 24 25 25 26 26 27 27 27 27 28 29 29 29 30 30 30 30 31 31 31 31 30 30 30 31 31
24 24 24 24 24 24 24 24 24 24 23 23 24 24 24 24 25 25 25 25 25 25 26 26 27 27 27 27 27 27 27 27 27 27 27 28 28 28 28 29 29 29 29 29
25 25 25 25 25 25 25 24 24 24 24 24 24 24 24 24 25 25 25 25 25 25 25 25 25 25 25 25 24 24 24 25 25 25 25 25 25 26 26 26 26 27 27 27
26 26 25 24 24 24 24 24 24 24 24 24 24 24 23 23 23 23 23 23 23 23 23 22 22 22 22 22 22 23 23 23 23 23 23 23 23 24 24 24 24 24 24 24
26 26 25 25 25 24 24 24 24 24 24 24 24 23 23 22 22 22 22 22 21 21 20 21 21 21 20 20 20 21 21 21 21 21 22 22 22 23 23 23 23 23 23 24
26 26 26 25 25 25 25 25 24 24 24 24 23 23 22 22 21 21 21 20 20 19 19 19 19 19 19 20 20 20 20 20 20 21 21 21 21 21 22 22 22 22 22 22
Wind_Direction
247 244 242 241 240 240 241 244 247 248 249 249 250 249 249 250 250 250 250 250 250 249 249 249 248 248 247 245 245 246 247 248 248 249 249 251 252 253 253 254 255 257 259 261
253 250 247 244 242 242 243 244 246 248 247 248 249 249 248 248 249 250 251 251 250 250 250 250 250 248 247 246 246 246 247 247 248 249 250 251 252 252 253 254 256 257 259 261
261 258 255 249 245 244 244 245 246 249 248 247 248 249 250 249 250 250 251 251 251 251 251 251 251 250 248 247 246 246 247 248 249 249 249 250 251 252 253 254 256 258 260 261
265 262 260 260 255 251 249 247 246 248 247 247 248 249 250 250 250 251 252 252 252 252 251 251 252 251 249 248 247 247 247 248 249 250 250 250 251 252 253 254 256 257 259 261
265 266 266 266 264 261 259 254 251 251 252 253 252 252 252 253 253 253 253 253 253 253 252 252 252 251 250 250 249 248 247 248 249 250 250 251 252 252 253 254 255 257 258 260
268 268 271 273 272 268 266 260 257 255 256 257 256 255 255 254 255 256 256 255 254 254 253 252 252 252 252 251 251 250 249 249 250 251 252 253 253 254 255 255 256 257 259 260
272 272 271 275 275 274 270 267 265 262 261 260 259 258 257 256 256 257 258 257 255 255 254 253 254 253 253 252 252 252 252 252 251 252 253 254 255 256 256 257 258 259 260 261
276 275 274 274 275 276 276 274 271 269 266 264 262 262 261 260 259 259 259 258 257 256 255 254 253 253 252 252 252 252 253 253 253 252 253 254 255 256 257 258 259 259 261 262
279 279 279 279 277 277 278 277 275 273 271 267 265 264 264 264 262 260 259 258 257 256 255 254 254 253 253 252 251 252 253 254 254 254 254 255 256 257 257 258 258 260 262 263
283 282 281 281 279 278 279 280 278 275 273 271 268 266 265 265 264 261 259 258 258 257 256 255 254 254 254 253 252 251 252 253 254 254 254 255 256 257 257 257 258 260 263 264
286 284 282 281 280 280 280 281 280 279 277 275 273 271 268 267 265 263 260 258 258 257 257 256 255 255 254 253 253 253 253 253 254 254 255 257 257 258 258 258 259 262 263 263
286 285 284 283 282 281 281 281 280 279 278 276 273 271 270 269 267 265 262 260 258 257 257 257 256 256 256 255 255 254 253 253 255 256 258 258 258 259 259 260 263 264 264 264
283 282 283 283 283 282 282 283 283 281 279 276 273 271 270 269 268 266 264 262 260 259 258 258 258 257 257 257 256 255 255 256 257 257 258 259 259 259 260 263 265 266 266 266
281 280 280 280 282 283 283 282 282 282 280 277 274 271 269 269 269 267 265 264 263 262 260 259 259 259 259 258 257 257 257 258 258 258 259 258 259 260 262 264 265 266 267 268
283 281 280 281 283 285 284 284 283 281 282 280 277 274 272 270 268 267 265 264 264 263 263 262 262 262 262 261 259 257 258 259 259 259 259 260 260 261 263 264 266 267 268 269
285 284 283 284 286 287 287 287 285 285 284 281 280 278 274 270 267 267 266 264 263 264 264 264 264 263 264 263 261 260 260 260 260 260 260 260 261 263 265 266 268 269 270 270
283 283 284 286 288 288 288 288 287 287 286 283 281 280 277 273 269 267 267 265 264 265 266 266 265 265 265 265 264 262 260 260 260 261 261 263 264 265 267 268 270 270 270 271
282 282 284 286 288 288 288 287 286 287 286 285 283 281 279 276 272 269 268 266 266 266 268 268 269 268 268 267 265 263 261 261 262 263 263 264 265 266 268 269 270 270 270 271
282 282 282 284 287 288 288 287 286 285 285 285 284 282 281 278 275 272 270 269 269 269 271 271 271 271 271 268 267 266 265 265 265 265 266 266 267 268 269 270 270 270 271 272
281 281 282 284 286 288 288 287 287 286 286 286 285 283 282 280 278 275 274 274 273 273 273 273 273 274 272 271 269 269 269 269 269 268 268 268 268 269 269 270 270 271 272 273
281 281 281 282 284 286 288 288 288 287 286 286 285 284 283 282 280 278 277 276 276 276 275 275 275 275 274 272 272 272 272 272 271 269 268 267 268 268 269 270 270 271 272 272
280 280 281 281 281 284 286 287 287 287 287 287 286 284 283 282 281 280 280 279 278 278 277 276 276 276 275 275 274 273 273 273 271 270 269 269 269 269 269 269 270 271 271 272
280 280 279 279 281 283 285 285 285 286 287 287 286 285 283 281 280 280 279 280 280 281 280 279 278 276 276 276 276 274 272 272 271 271 270 270 270 268 268 268 269 270 271 272
280 280 280 279 280 283 284 284 284 285 287 287 287 286 284 282 281 280 279 279 280 281 281 280 279 278 276 274 274 273 272 272 272 271 271 271 270 269 269 269 270 271 271 271
278 280 280 280 281 282 283 283 284 285 286 288 288 286 284 282 281 280 280 280 280 281 282 282 281 280 278 275 274 274 273 272 271 271 272 271 270 270 270 270 271 271 271 271
277 278 280 280 280 280 281 281 283 284 286 288 289 287 284 282 281 280 280 280 280 281 282 283 283 281 279 277 275 275 274 272 270 271 272 272 272 271 271 271 271 271 271 272
276 276 277 278 278 279 279 280 282 283 285 286 288 287 284 282 280 279 279 279 280 281 282 283 284 283 280 278 276 276 275 273 271 272 273 273 272 271 271 271 271 271 271 271